Location: Hünenberg
(47.1789°N, 8.4235°E)
Time: 02:16:06
(UTC+00:00)

Daily predictions for brighter satellites

Satellite Brightness Start Highest point End
(mag) Time Altitude Azimuth Time Altitude Azimuth Time Altitude Azimuth
ADEOS II 4.5 00:02:27 10° ENE 00:04:16 12° E 00:06:04 10° ESE
NOSS 2-2 (D) 4.2 00:01:34 10° NW 00:06:37 89° SW 00:11:37 20° SE
Cosmos 1461 3.4 00:02:54 10° NW 00:06:31 42° WSW 00:06:31 42° WSW
Cosmos 1867 3.7 00:05:01 36° SW 00:07:16 75° NW 00:12:47 10° NE
Cosmos 1674 Rocket 3.5 00:06:55 57° SW 00:07:39 73° W 00:12:00 10° N
Cosmos 2221 Rocket 4.0 00:06:47 43° WSW 00:07:40 50° WNW 00:11:59 10° N
Cosmos 2298 Rocket 4.0 00:07:41 46° S 00:09:16 75° ESE 00:14:35 10° NNE
Cosmos 1674 3.5 00:10:51 37° W 00:11:09 38° WNW 00:14:42 10° N
USA 306 3.1 00:11:52 50° SE 00:11:52 50° SE 00:15:48 10° ENE
Cosmos 1238 Rocket 3.6 00:10:07 10° NNW 00:12:06 30° WNW 00:12:06 30° WNW
Thor Agena Rocket 4.2 00:08:32 10° NNE 00:13:38 46° E 00:15:34 32° SSE
ATLAS CENTAUR R/B 3.4 00:11:11 10° WNW 00:13:59 19° W 00:13:59 19° W
USA 307 3.2 00:15:20 47° SE 00:15:20 47° SE 00:19:14 10° ENE
SL-16 R/B 3.9 00:16:08 17° SE 00:18:29 22° E 00:22:46 10° NE
ERBS 3.7 00:22:52 26° E 00:22:52 26° E 00:24:37 10° ENE
Cosmos 1980 3.7 00:20:38 41° S 00:22:38 72° ESE 00:28:17 10° NNE
Cosmos 1378 Rocket 3.9 00:22:19 44° WSW 00:23:17 53° WNW 00:27:39 10° N
ATLAS 5 CENTAUR R/B 2.9 00:11:42 10° NW 00:23:17 57° WSW 00:24:40 42° S
Cosmos 2333 Rocket 3.6 00:19:42 15° WSW 00:23:37 31° NW 00:28:39 10° NNE
CZ-4C R/B 3.2 00:16:48 10° NW 00:23:54 51° WSW 00:27:53 30° S
Cosmos 1455 Rocket 3.9 00:19:49 10° N 00:24:08 46° ENE 00:26:10 27° SE
USA 215 4.1 00:19:56 10° NE 00:26:12 50° NNW 00:32:27 10° W
Cosmos 332 Rocket 4.1 00:28:23 39° SSE 00:29:47 54° ESE 00:34:27 10° NNE
NOSS 0 Rocket 3.9 00:29:22 35° SW 00:32:15 82° WNW 00:38:33 10° NNE
USA 32 4.0 00:35:15 40° SSW 00:37:12 83° W 00:42:30 10° N
Meteor 2-10 Rocket 3.6 00:32:53 10° N 00:38:37 89° E 00:41:17 32° S
Cosmos 1975 Rocket 3.3 00:39:39 38° SSE 00:41:07 61° E 00:45:32 10° NNE
Cosmos 1745 Rocket 4.5 00:36:16 10° NNW 00:42:10 46° W 00:44:35 31° SW
ADEOS Rocket 4.4 00:42:18 17° WSW 00:43:48 18° W 00:47:47 10° NW
Cosmos 839 Rocket 4.3 00:37:54 10° NW 00:44:12 62° WSW 00:49:12 21° SSE
USA 308 2.7 00:44:46 51° SW 00:45:44 76° SE 00:49:56 10° ENE
Cosmos 2219 Rocket 3.8 00:42:56 13° W 00:46:58 27° NW 00:51:42 10° N
Cosmos 1025 Rocket 3.3 00:47:03 36° SSE 00:48:35 58° E 00:52:50 10° NNE
Cosmos 1455 3.8 00:46:54 10° N 00:50:13 30° ENE 00:52:37 15° SE
Cosmos 1269 Rocket 4.2 00:45:44 10° NNW 00:51:02 71° ENE 00:55:07 17° SSE
GP-B 3.2 00:52:19 10° N 00:56:43 61° W 00:58:07 40° SW
Meteor 2-5 Rocket 3.9 00:55:38 29° S 00:58:41 72° E 01:04:21 10° NNE
CZ-2D R/B 2.4 00:54:17 10° NNE 00:59:37 61° ESE 01:02:28 27° S
Lacrosse 5 2.4 00:58:31 33° S 01:00:13 44° SE 01:05:04 10° ENE
Cosmos 1300 3.3 00:57:33 10° NNW 01:01:04 37° W 01:01:27 36° WSW
USA 267 4.1 01:02:15 25° SW 01:02:48 26° SW 01:08:06 10° WNW
SL-14 R/B 4.4 01:02:27 27° W 01:03:20 29° WNW 01:06:45 10° N
Cosmos 371 Rocket 4.2 01:06:03 24° WSW 01:08:20 39° WNW 01:12:54 10° N
USA 305 3.0 01:07:08 28° WSW 01:09:14 70° NNW 01:13:25 10° ENE
Cosmos 1544 Rocket 3.7 01:06:06 10° N 01:10:33 73° E 01:13:10 24° SSE
USA 229 DEB 4.4 01:04:18 10° NW 01:11:05 39° WSW 01:15:06 24° SSW
USA 229 4.4 01:04:23 10° NW 01:11:11 40° WSW 01:15:15 24° SSW
BREEZE-M DEB (TANK) 4.3 00:56:27 10° WSW 01:12:30 87° NNW 01:16:42 10° ENE
Cosmos 2237 Rocket 2.7 01:11:28 25° SW 01:14:40 53° WNW 01:20:16 10° NNE
COSMOS 2428 4.4 01:12:17 10° W 01:16:46 24° NW 01:21:21 10° N
AQUA 4.2 01:14:14 10° NNE 01:18:57 57° E 01:21:49 23° S
Cosmos 304 Rocket 4.4 01:17:17 27° WSW 01:19:35 47° WNW 01:24:16 10° NNE
SL-16 R/B 2.5 01:14:42 15° SSE 01:19:56 87° WSW 01:26:14 10° NNW
Helios 1A 4.0 01:17:03 10° SE 01:21:04 46° ENE 01:25:08 10° N
SAR-Lupe-2 4.0 01:19:01 10° NNE 01:22:33 54° E 01:24:09 28° SSE
Lacrosse 5 rocket 2.0 01:21:54 30° S 01:23:02 37° SE 01:26:48 10° ENE
SME Rocket 3.8 01:24:34 30° SW 01:25:50 38° W 01:30:27 10° NNW
Cosmos 1953 4.4 01:23:59 10° NW 01:26:00 14° W 01:26:26 13° W
Cosmos 2074 Rocket 4.0 01:22:27 10° N 01:28:47 84° W 01:33:59 16° S
Resurs 1-4 Rocket 2.1 01:23:32 10° NNE 01:28:48 76° WNW 01:31:56 25° SSW
Cosmos 2297 3.7 01:27:51 10° NNW 01:33:39 88° WSW 01:39:23 10° SSE
Cosmos 1943 Rocket 2.1 01:27:59 10° NNW 01:33:39 71° WSW 01:39:16 10° SSE
Cosmos 1703 4.3 01:35:51 15° SSE 01:38:47 41° E 01:42:30 10° NNE
CRYOSAT 2 4.3 01:38:47 19° S 01:42:21 82° W 01:47:17 10° N
Cosmos 2184 Rocket 4.0 01:37:25 10° NNW 01:43:39 69° W 01:48:45 15° S
Cosmos 2278 Rocket 3.7 01:40:36 10° WNW 01:44:11 17° W 01:45:23 16° WSW
ADEOS II 2.1 01:39:28 10° NNE 01:44:46 82° ESE 01:48:40 19° SSW
IDEFIX/ARIANE 42P 2.8 01:40:23 10° NNE 01:45:41 70° ESE 01:49:51 16° S
Cosmos 1610 Rocket 4.5 01:41:17 10° N 01:47:29 87° E 01:53:37 10° S
USA 306 3.8 01:47:34 11° W 01:51:23 46° NNW 01:55:25 10° NE
Cosmos 2084 Rocket 3.7 01:49:15 21° WSW 01:51:31 49° NW 01:55:14 10° NNE
Cosmos 292 Rocket 4.0 01:48:10 19° S 01:51:36 65° ESE 01:56:21 10° NNE
USA 307 3.7 01:51:04 12° W 01:54:51 48° NNW 01:58:55 10° NE
NPP 4.0 01:51:30 10° N 01:56:47 55° WNW 02:00:35 19° SW
ERBS 3.7 01:54:54 13° W 01:57:09 29° NNW 01:59:55 10° NE
Cosmos 2369 Rocket 2.4 01:53:19 10° NNW 01:58:57 76° ENE 02:04:33 10° SSE
SL-16 R/B 2.4 01:58:00 19° SW 02:02:06 63° WNW 02:07:46 10° NNE
Cosmos 2228 3.1 01:58:08 10° N 02:02:32 81° E 02:06:52 10° S
Cosmos 614 Rocket 4.0 01:57:23 10° NNW 02:02:32 65° WSW 02:07:41 10° S
IRS-1D 4.0 01:57:22 10° NNE 02:02:39 60° E 02:07:52 10° S
EO 1 Del DPAF 2.9 01:59:26 10° N 02:02:58 79° WNW 02:05:16 20° SSW
Cosmos 2251 Rocket 3.6 01:59:17 10° NNW 02:04:34 83° ENE 02:09:52 10° SSE
Meteor 1-28 Rocket 3.4 02:03:36 18° S 02:06:12 49° W 02:09:51 10° NNW
Cosmos 1656 Rocket 3.9 02:02:54 10° NNW 02:08:21 72° ENE 02:13:45 10° SSE
COSMOS 2455 2.9 02:04:48 17° SSW 02:09:37 84° ESE 02:15:42 10° NE
Cosmos 1536 Rocket 3.8 02:08:03 18° SSW 02:11:10 54° WNW 02:15:29 10° N
COSMOS 2441 4.4 02:13:06 10° NNE 02:18:00 83° ESE 02:22:48 10° SSW
Nadezhda 1 Rocket 4.2 02:15:05 14° SSW 02:20:38 59° WNW 02:26:52 10° N
MSX 3.9 02:16:57 10° NNE 02:22:44 78° WNW 02:28:25 10° SSW
Cosmos 1455 3.7 02:22:45 10° NW 02:25:30 20° W 02:27:23 14° SW
Cosmos 1603 4.3 02:20:12 10° S 02:25:38 53° ESE 02:31:09 10° NE
USA 308 4.1 02:21:42 10° W 02:25:38 38° NNW 02:29:35 10° NE
MOS 1 Rocket 4.2 02:23:22 15° SW 02:26:04 26° W 02:29:42 10° NW
Cosmos 1271 Rocket 3.5 02:26:02 10° NNW 02:29:30 33° W 02:32:45 11° SSW
Cosmos 1606 Rocket 3.5 02:29:17 10° NNW 02:33:42 72° W 02:38:03 10° S
ALOS 3.5 02:32:37 10° NNE 02:37:03 41° E 02:41:27 10° SSE
CZ-2C R/B 3.6 02:34:18 10° NNE 02:39:13 44° E 02:43:59 10° S
CZ-2D R/B 3.6 02:35:05 10° N 02:39:13 23° WNW 02:43:18 10° WSW
Lacrosse 5 2.6 02:38:13 10° WSW 02:43:11 50° NNW 02:48:10 10° NE
Helios 1B rocket 2.6 02:39:51 10° NNE 02:43:55 76° ESE 02:47:59 10° S
Cosmos 2366 rocket 4.1 02:39:46 10° N 02:45:57 88° E 02:52:09 10° S
Cosmos 2341 Rocket 4.1 02:40:07 10° NNW 02:46:28 67° W 02:52:47 10° S
USA 305 4.4 02:45:30 10° WNW 02:49:18 33° N 02:53:07 10° ENE
Meteor 2-1 Rocket 4.4 02:45:22 10° NNW 02:51:03 59° W 02:56:34 10° S
BREEZE-M DEB (TANK) 3.0 02:47:24 10° SW 02:51:44 41° SSE 02:53:57 10° E
Cosmos 407 Rocket 3.5 02:47:11 10° NNW 02:52:29 70° WSW 02:57:43 10° S
SL-8 Rocket 4.1 02:46:55 10° NNW 02:53:13 71° W 02:59:29 10° S
Cosmos 1371 Rocket 4.4 02:50:40 10° S 02:55:45 63° ESE 03:00:54 10° NNE
Cosmos 1328 4.0 02:52:56 10° SSW 02:56:49 56° WNW 03:00:46 10° N
Cosmos 1943 3.3 02:51:21 10° SSW 02:57:04 82° WNW 03:02:48 10° NNE
Cosmos 2237 Rocket 4.4 02:57:22 10° WNW 03:00:07 14° NW 03:02:54 10° N
Genesis I 3.2 02:56:09 10° NW 03:00:12 67° SW 03:04:09 10° SSE
Lacrosse 5 rocket 2.2 02:58:18 10° W 03:02:04 42° NNW 03:06:03 10° NE
Meteor 1-29 4.0 02:59:51 10° NNE 03:02:58 42° E 03:06:05 10° S
Cosmos 1140 Rocket 3.7 02:58:18 10° NNW 03:03:25 53° WSW 03:08:28 10° S
SL-16 R/B 4.1 03:00:51 10° WSW 03:04:25 16° W 03:08:01 10° NW
